sat.trackr.live / text

‹ back to catalog

STARLINK-3857

NORAD 52494 · 2022-049AV

PAYLOAD ACTIVE UNKNOWN

§ Identity

Operator
Country
US
Launch date
2022-05-06
Launch site
AFETR
Launch vehicle
Mass (kg)
RCS (m²)

Purposes: comms

External: N2YO · Heavens-Above · Gunter

§ Orbital elements

Epoch: 2026-09-19T22:17:06.895392Z

Period
93.85 min
Inclination
53.1584°
Eccentricity
0.0001433
Mean motion
15.34384014 rev/d
Perigee alt
461.8 km
Apogee alt
463.7 km
Semi-major
6,840.9 km
B*
3.4549e-5
RAAN
240.7352°
Arg perigee
84.8304°
Mean anomaly
275.2862°
Rev number
24,194

§ Raw data

STARLINK-38571 52494U 22049AV  26262.92855203  .00000791  00000+0  34549-4 0  99982 52494  53.1584 240.7352 0001433  84.8304 275.2862 15.34384014241948

JSON: /api/v1/satellites/52494 · /tle

For live sub-satellite position, see the globe view (requires WebGL).

§ Visibility from observer

Set your observer location to see the next 7 days of passes ≥ 10°. The values pass through the URL so the page stays shareable.

No JS? Fill the form by hand. The geolocation button needs JavaScript.